Meteo orario Abeokuta

Oggi, 28 Febbraio, Domenica

Tempo Temperatura Precipitazioni Vento Pressione Umidità
00:00 +25°C° 0 mm 0 m/s 749 mm Hg 84%
01:00 +25°C° 0 mm 0 m/s 749 mm Hg 86%
02:00 +25°C° 0 mm 0 m/s 748 mm Hg 88%
03:00 +24°C° 0 mm 0 m/s 748 mm Hg 89%
04:00 +24°C° 0 mm 0 m/s 748 mm Hg 90%
05:00 +26°C° 0 mm 1 m/s 749 mm Hg 90%
06:00 +26°C° 0 mm 1 m/s 749 mm Hg 90%
07:00 +28°C° 0 mm 1 m/s 750 mm Hg 78%
08:00 +31°C° 0 mm 1 m/s 750 mm Hg 66%
09:00 +34°C° 0 mm 1 m/s 751 mm Hg 54%
10:00 +36°C° 0 mm 1 m/s 750 mm Hg 45%
11:00 +40°C° 0 mm 1 m/s 750 mm Hg 37%
12:00 +43°C° 0 mm 1 m/s 749 mm Hg 28%
13:00 +41°C° 0 mm 1 m/s 748 mm Hg 29%
14:00 +40°C° 0 mm 2 m/s 747 mm Hg 30%
15:00 +39°C° 0 mm 2 m/s 746 mm Hg 30%
16:00 +37°C° 0 mm 3 m/s 747 mm Hg 38%
17:00 +36°C° 0 mm 3 m/s 747 mm Hg 47%
18:00 +34°C° 0 mm 4 m/s 747 mm Hg 55%
19:00 +33°C° 0 mm 4 m/s 748 mm Hg 61%
20:00 +31°C° 0 mm 3 m/s 748 mm Hg 67%
21:00 +29°C° 0 mm 3 m/s 749 mm Hg 73%
22:00 +29°C° 0 mm 2 m/s 749 mm Hg 76%
23:00 +28°C° 0 mm 2 m/s 749 mm Hg 78%

Domani, 1 Marzo, Lunedi

Tempo Temperatura Precipitazioni Vento Pressione Umidità
00:00 +28°C° 0 mm 2 m/s 749 mm Hg 81%
01:00 +28°C° 0 mm 1 m/s 749 mm Hg 83%
02:00 +27°C° 0 mm 1 m/s 748 mm Hg 86%
03:00 +27°C° 0 mm 1 m/s 748 mm Hg 88%
04:00 +27°C° 0 mm 1 m/s 748 mm Hg 89%
05:00 +27°C° 0 mm 1 m/s 749 mm Hg 91%
06:00 +24°C° 0 mm 0 m/s 749 mm Hg 92%
07:00 +28°C° 0 mm 1 m/s 750 mm Hg 84%
08:00 +29°C° 0 mm 1 m/s 750 mm Hg 76%
09:00 +31°C° 0 mm 1 m/s 751 mm Hg 67%
10:00 +33°C° 0 mm 1 m/s 750 mm Hg 59%
11:00 +35°C° 0 mm 1 m/s 750 mm Hg 51%
12:00 +37°C° 0 mm 1 m/s 749 mm Hg 43%
13:00 +39°C° 0 mm 1 m/s 749 mm Hg 41%
14:00 +39°C° 0 mm 1 m/s 748 mm Hg 38%
15:00 +40°C° 0 mm 2 m/s 747 mm Hg 36%
16:00 +38°C° 0 mm 2 m/s 747 mm Hg 42%
17:00 +36°C° 0 mm 3 m/s 747 mm Hg 48%
18:00 +35°C° 0 mm 4 m/s 748 mm Hg 54%
19:00 +33°C° 0 mm 4 m/s 748 mm Hg 61%
20:00 +31°C° 0 mm 3 m/s 749 mm Hg 68%
21:00 +29°C° 0 mm 3 m/s 749 mm Hg 74%
22:00 +29°C° 0 mm 2 m/s 749 mm Hg 77%
23:00 +28°C° 0 mm 2 m/s 749 mm Hg 80%

Dopodomani, 2 Marzo, Martedi

Tempo Temperatura Precipitazioni Vento Pressione Umidità
00:00 +28°C° 0 mm 1 m/s 749 mm Hg 83%
01:00 +28°C° 0 mm 1 m/s 748 mm Hg 85%
02:00 +27°C° 0 mm 1 m/s 748 mm Hg 86%
03:00 +27°C° 0 mm 2 m/s 748 mm Hg 88%
04:00 +27°C° 0 mm 1 m/s 748 mm Hg 90%
05:00 +24°C° 0 mm 0 m/s 749 mm Hg 92%
06:00 +24°C° 0 mm 0 m/s 749 mm Hg 94%
07:00 +27°C° 0 mm 0 m/s 750 mm Hg 81%
08:00 +29°C° 0 mm 0 m/s 750 mm Hg 69%
09:00 +34°C° 0 mm 1 m/s 751 mm Hg 56%
10:00 +37°C° 0 mm 1 m/s 751 mm Hg 49%
11:00 +40°C° 0 mm 1 m/s 750 mm Hg 41%
12:00 +42°C° 0 mm 1 m/s 750 mm Hg 33%
13:00 +41°C° 0 mm 2 m/s 749 mm Hg 36%
14:00 +40°C° 0 mm 3 m/s 748 mm Hg 38%
15:00 +40°C° 0 mm 4 m/s 747 mm Hg 41%
16:00 +37°C° 0 mm 4 m/s 747 mm Hg 47%
17:00 +35°C° 0 mm 4 m/s 748 mm Hg 54%
18:00 +34°C° 0 mm 4 m/s 748 mm Hg 60%
19:00 +33°C° 0 mm 4 m/s 748 mm Hg 66%
20:00 +30°C° 0 mm 3 m/s 749 mm Hg 71%
21:00 +29°C° 0 mm 3 m/s 749 mm Hg 76%
22:00 +29°C° 0 mm 2 m/s 749 mm Hg 79%
23:00 +28°C° 0 mm 2 m/s 749 mm Hg 81%

3 Marzo, Mercoledi

Tempo Temperatura Precipitazioni Vento Pressione Umidità
00:00 +28°C° 0 mm 2 m/s 749 mm Hg 83%
01:00 +28°C° 0 mm 1 m/s 749 mm Hg 85%
02:00 +27°C° 0 mm 1 m/s 748 mm Hg 88%
03:00 +27°C° 0 mm 1 m/s 748 mm Hg 90%
04:00 +27°C° 0 mm 1 m/s 749 mm Hg 91%
05:00 +25°C° 0 mm 0 m/s 749 mm Hg 91%
06:00 +25°C° 0 mm 0 m/s 749 mm Hg 92%
07:00 +28°C° 0 mm 1 m/s 750 mm Hg 82%
08:00 +30°C° 0 mm 1 m/s 750 mm Hg 72%
09:00 +32°C° 0 mm 1 m/s 751 mm Hg 63%
10:00 +34°C° 0 mm 1 m/s 750 mm Hg 55%
11:00 +36°C° 0 mm 1 m/s 750 mm Hg 48%
12:00 +40°C° 0 mm 1 m/s 750 mm Hg 40%
13:00 +39°C° 0 mm 2 m/s 749 mm Hg 40%
14:00 +39°C° 0 mm 3 m/s 748 mm Hg 41%
15:00 +40°C° 0 mm 4 m/s 747 mm Hg 41%
16:00 +37°C° 0 mm 4 m/s 747 mm Hg 46%
17:00 +36°C° 0 mm 4 m/s 748 mm Hg 52%
18:00 +34°C° 0 mm 5 m/s 748 mm Hg 58%
19:00 +33°C° 0 mm 4 m/s 748 mm Hg 63%
20:00 +31°C° 0 mm 3 m/s 749 mm Hg 68%
21:00 +29°C° 0 mm 2 m/s 749 mm Hg 74%
22:00 +29°C° 0 mm 2 m/s 749 mm Hg 77%
23:00 +28°C° 0 mm 2 m/s 749 mm Hg 80%

4 Marzo, Giovedi

Tempo Temperatura Precipitazioni Vento Pressione Umidità
00:00 +28°C° 0 mm 1 m/s 749 mm Hg 84%
01:00 +28°C° 0 mm 2 m/s 749 mm Hg 86%
02:00 +27°C° 0 mm 2 m/s 748 mm Hg 88%
03:00 +27°C° 0 mm 2 m/s 748 mm Hg 90%
04:00 +27°C° 0 mm 1 m/s 748 mm Hg 91%
05:00 +27°C° 0 mm 1 m/s 749 mm Hg 92%
06:00 +24°C° 0 mm 0 m/s 749 mm Hg 93%
07:00 +28°C° 0 mm 1 m/s 750 mm Hg 84%
08:00 +30°C° 0 mm 1 m/s 750 mm Hg 74%
09:00 +32°C° 0 mm 2 m/s 751 mm Hg 64%
10:00 +34°C° 0 mm 2 m/s 750 mm Hg 60%
11:00 +35°C° 0 mm 2 m/s 750 mm Hg 56%
12:00 +36°C° 0 mm 2 m/s 749 mm Hg 52%
13:00 +37°C° 0 mm 2 m/s 749 mm Hg 47%
14:00 +38°C° 0 mm 2 m/s 748 mm Hg 43%
15:00 +39°C° 0 mm 2 m/s 747 mm Hg 39%
16:00 +37°C° 0 mm 2 m/s 747 mm Hg 43%
17:00 +36°C° 0 mm 3 m/s 747 mm Hg 47%
18:00 +35°C° 0 mm 3 m/s 747 mm Hg 52%
19:00 +33°C° 0 mm 3 m/s 748 mm Hg 59%
20:00 +31°C° 0 mm 3 m/s 748 mm Hg 67%
21:00 +29°C° 0 mm 3 m/s 749 mm Hg 75%
22:00 +29°C° 0 mm 2 m/s 749 mm Hg 79%
23:00 +28°C° 0 mm 2 m/s 749 mm Hg 83%

5 Marzo, Venerdi

Tempo Temperatura Precipitazioni Vento Pressione Umidità
00:00 +28°C° 0 mm 2 m/s 749 mm Hg 87%
01:00 +27°C° 0 mm 2 m/s 749 mm Hg 89%
02:00 +27°C° 0 mm 2 m/s 748 mm Hg 91%
03:00 +27°C° 0 mm 1 m/s 748 mm Hg 93%
04:00 +26°C° 0 mm 1 m/s 748 mm Hg 93%
05:00 +26°C° 0 mm 1 m/s 749 mm Hg 94%
06:00 +26°C° 0 mm 1 m/s 749 mm Hg 94%
07:00 +28°C° 0 mm 1 m/s 750 mm Hg 86%
08:00 +29°C° 0 mm 2 m/s 750 mm Hg 77%
09:00 +31°C° 0 mm 2 m/s 751 mm Hg 68%
10:00 +32°C° 0 mm 2 m/s 750 mm Hg 62%
11:00 +35°C° 0 mm 2 m/s 750 mm Hg 57%
12:00 +36°C° 0 mm 2 m/s 749 mm Hg 51%
13:00 +37°C° 0 mm 3 m/s 749 mm Hg 48%
14:00 +37°C° 0 mm 3 m/s 748 mm Hg 45%
15:00 +38°C° 0 mm 3 m/s 747 mm Hg 42%
16:00 +37°C° 0 mm 3 m/s 747 mm Hg 47%
17:00 +35°C° 0 mm 3 m/s 748 mm Hg 52%
18:00 +34°C° 0 mm 3 m/s 748 mm Hg 56%
19:00 +33°C° 0 mm 3 m/s 749 mm Hg 62%
20:00 +32°C° 0 mm 4 m/s 749 mm Hg 67%
21:00 +29°C° 0 mm 4 m/s 750 mm Hg 73%
22:00 +29°C° 0 mm 3 m/s 750 mm Hg 75%
23:00 +29°C° 0 mm 2 m/s 750 mm Hg 78%
Mostrare altro

Abbiamo bisogno del tuo consenso

Meteoprog e i nostri fornitori di servizi possono memorizzare e accedere a dati personali come cookie, identificatori di dispositivi o altre tecnologie simili sul tuo dispositivo e possono elaborare tali dati per personalizzare i contenuti e gli annunci, nonché fornire funzionalità dei social media e analizzarne il traffico.

  • Archiviare e/o accedere alle informazioni sul tuo dispositivo

    Cookie, identificatori di dispositivi o altre informazioni possono essere memorizzati o resi accessibili sul tuo dispositivo per le finalità sopra indicate.

  • Annunci e contenuti personalizzati, misurazione di annunci e contenuti, approfondimenti sul pubblico e sviluppo di prodotti

    Gli annunci e i contenuti possono essere personalizzati in base a un profilo. È possibile aggiungere più dati per personalizzare meglio annunci e contenuti. È possibile misurare il rendimento degli annunci e dei contenuti. È possibile ricavare informazioni sul pubblico che ha visto gli annunci e i contenuti. Tali dati possono essere utilizzati per sviluppare o migliorare l'esperienza, i sistemi e il software dell'utente.

Cliccando su “Accetto”, acconsenti all'uso di cookie, identificatori di dispositivo, web beacon o altre tecnologie simili. Puoi modificare le impostazioni nel browser del tuo dispositivo.

Per determinati scopi, è possibile fare affidamento su interessi legali, piuttosto che sul consenso. Puoi approfondire questo argomento consultando la nostra Informativa sulla privacy e sui cookie.